Regional Weather Roundup
Issued by NWS

Home | Current Version | Previous Version | Graphics & Text | Print | Product List | Glossary On
Versions: 1 2 3 4 5 6 7 8 9 10 11 12 13 14 15 16 17 18 19 20 21 22 23 24 25 26 27 28 29 30 31 32 33 34 35 36 37 38 39 40 41 42 43 44 45 46 47 48 49 50
351
ASUS43 KIND 070909
RWRIN

WEATHER ROUNDUP FOR INDIANA
NATIONAL WEATHER SERVICE INDIANAPOLIS IN
400 AM EST WED DEC 07 2016

NOTE: "FAIR" INDICATES FEW OR NO CLOUDS BELOW 12,000 FEET WITH NO
SIGNIFICANT WEATHER AND/OR OBSTRUCTIONS TO VISIBILITY.

* - STATION DOES NOT REPORT WEATHER SUCH AS PRECIPITATION OR FOG.

+ - STATION NOT QUALITY CONTROLLED BY THE NATIONAL WEATHER SERVICE.
    USE DATA WITH CAUTION...ESPECIALLY DEWPOINT AND RELATIVE
    HUMIDITY OBSERVATIONS.

INZ001>003-010>013-019-020-071000-
NORTHWEST INDIANA

CITY           SKY/WX    TMP DP  RH WIND       PRES   REMARKS
GARY /AIRPORT/ PTCLDY    30  19  64 W12G20    30.04S WCI  20
KNOX *+        PTCLDY    28   5  37 W12       30.03S WCI  18
LA PORTE +     PTCLDY    28  24  83 W12       30.02S WCI  18
MICHIGAN CITY+ PTCLDY    30  21  69 SW9G20    30.03R WCI  22
MONTICELLO +   PTCLDY    29  18  62 W10       30.07R WCI  20
RENSSELAER +     N/A     30  23  74 W12       30.07R WCI  21
VALPARAISO     CLOUDY    28  18  66 W20G25    30.03R WCI  15

$$

LMZ046-743>745-071000-
SOUTHERN LAKE MICHIGAN

STATION/POSITION TIME  TEMP    WIND        PRES    WAVE
                       AIR SEA DIR/SP/G            HT
                 (UTC) (F)     (DEG/KT/KT) (MB)    (FT)
BURNS HARBOR     0859   31     260/ 23/ 25 1016.9R
MICHIGAN CITY    0840   30     230/ 27/ 30   N/A

$$

INZ004-005-014>016-021>024-071000-
NORTH CENTRAL INDIANA

CITY           SKY/WX    TMP DP  RH WIND       PRES   REMARKS
GOSHEN         CLEAR     27  18  69 W17G25    30.00S WCI  14
LOGANSPORT +   PTCLDY    30  21  69 W12       30.07S WCI  21
PERU/GRISSOM   PTCLDY    28  21  74 W13       30.04R WCI  18
ROCHESTER +    PTCLDY    32  23  69 W10       30.04R WCI  24
SOUTH BEND     CLEAR     26  19  74 W14       30.01R WCI  14
WARSAW +       CLEAR     28  19  69 W13G21    30.02R WCI  18

$$

INZ006>009-017-018-025>027-071000-
NORTHEAST INDIANA

CITY           SKY/WX    TMP DP  RH WIND       PRES   REMARKS
ANGOLA *+      MOCLDY    27  23  86 W13       29.97R WCI  16
AUBURN +       CLEAR     28  21  74 W9        30.01R WCI  20
FORT WAYNE     PTCLDY    28  21  75 W12       30.03R WCI  18
HUNTINGTON +   CLEAR     27  20  76 W13G20    30.03R WCI  16
KENDALLVILLE + CLEAR     27  20  77 W15G21    29.99R WCI  15

$$

INZ028-029-035-036-043>045-051>053-071000-
WEST CENTRAL INDIANA

CITY           SKY/WX    TMP DP  RH WIND       PRES   REMARKS
CRAWFORDSVL +  PTCLDY    26  22  87 NW6       30.09S WCI  19
GREENCASTLE +  PTCLDY    28  27  93 CALM      30.09S
LAFAYETTE      CLOUDY    28  22  78 W9        30.09R WCI  19
TERRE HAUTE    CLOUDY    30  22  72 NW3       30.11R

$$

INZ030>032-037>040-046>048-054>057-064-065-071000-
CENTRAL INDIANA

CITY           SKY/WX    TMP DP  RH WIND       PRES   REMARKS
CP ATTERBURY + PTCLDY    30  27  86 CALM      30.10R
FRANKFORT +    PTCLDY    31  25  79 NW9       30.09R WCI  22
GREENWOOD *+   PTCLDY    30  25  81 NW5       30.09R WCI  26
INDIANAPOLIS   PTCLDY    26  21  81 W8        30.09R WCI  18
-EAGLE CREEK   CLEAR     30  22  72 W6        30.09R WCI  24
KOKOMO +       CLEAR     29  22  75 W13       30.07R WCI  19
MARION +       CLEAR     28  22  80 W10       30.06R WCI  18
SHELBYVILLE    CLEAR     27  21  78 NW6       30.07S WCI  20
ZIONSVILLE +   PTCLDY    27  22  83 W5        30.08S WCI  21

$$

INZ033-034-041-042-049-050-058-059-071000-
EAST CENTRAL INDIANA

CITY           SKY/WX    TMP DP  RH WIND       PRES   REMARKS
MUNCIE         CLEAR     29  20  69 W8        30.06R WCI  21

$$

INZ060-061-067>069-081>083-085>088-071000-
SOUTHWEST INDIANA

CITY           SKY/WX    TMP DP  RH WIND       PRES   REMARKS
EVANSVILLE     CLOUDY    36  29  75 N3        30.14R
HUNTINGBURG *+ CLOUDY    34  30  86 W6        30.15R WCI  29
WASHINGTON +   MOCLDY    32  30  91 NW5       30.14R WCI  27

$$

INZ062-063-066-070>080-084-089>092-071000-
SOUTH CENTRAL AND SOUTHEAST INDIANA

CITY           SKY/WX    TMP DP  RH WIND       PRES   REMARKS
BLOOMINGTON    PTCLDY    30  24  78 W3        30.11R
MADISON *+     PTCLDY    30  28  93 CALM      30.10S
NORTH VERNON + PTCLDY   N/A N/A N/A CALM      30.10R
SEYMOUR +      CLOUDY    28  27  93 CALM      30.11

$$





USA.gov is the U.S. government's official web portal to all federal, state and local government web resources and services.